TimeCST,TemperatureF,Dew PointF,Humidity,Sea Level PressureIn,VisibilityMPH,Wind Direction,Wind SpeedMPH,Gust SpeedMPH,PrecipitationIn,Events,Conditions,WindDirDegrees,DateUTC
12:15 AM,10.2,3.0,73,30.36,10.0,North,8.1,-,N/A,,Clear,350,2013-02-20 06:15:00
12:35 AM,9.7,3.0,74,30.37,10.0,North,6.9,-,N/A,,Clear,360,2013-02-20 06:35:00
12:55 AM,9.5,3.0,75,30.36,10.0,North,9.2,-,N/A,,Clear,360,2013-02-20 06:55:00
1:15 AM,9.5,3.0,75,30.37,10.0,North,8.1,-,N/A,,Clear,10,2013-02-20 07:15:00
1:35 AM,9.3,2.8,75,30.38,10.0,North,6.9,-,N/A,,Clear,350,2013-02-20 07:35:00
1:55 AM,9.0,2.8,76,30.38,10.0,North,6.9,-,N/A,,Clear,360,2013-02-20 07:55:00
2:15 AM,8.6,2.5,76,30.38,10.0,North,6.9,-,N/A,,Clear,350,2013-02-20 08:15:00
2:35 AM,8.6,2.5,76,30.36,10.0,NNE,9.2,-,N/A,,Clear,20,2013-02-20 08:35:00
2:55 AM,8.1,2.1,77,30.36,10.0,NNE,6.9,-,N/A,,Clear,20,2013-02-20 08:55:00
3:35 AM,7.5,1.8,77,30.35,10.0,NNE,6.9,-,N/A,,Clear,20,2013-02-20 09:35:00
3:55 AM,7.3,1.2,76,30.34,10.0,NNE,11.5,-,N/A,,Clear,30,2013-02-20 09:55:00
4:15 AM,6.8,0.7,76,30.33,10.0,NNE,11.5,-,N/A,,Clear,30,2013-02-20 10:15:00
4:35 AM,6.8,0.7,76,30.32,10.0,NNE,10.4,-,N/A,,Clear,30,2013-02-20 10:35:00
4:55 AM,6.4,0.5,77,30.32,10.0,NE,12.7,-,N/A,,Clear,40,2013-02-20 10:55:00
5:15 AM,6.1,0.3,77,30.33,10.0,NE,6.9,-,N/A,,Clear,50,2013-02-20 11:15:00
5:35 AM,6.1,0.5,78,30.33,10.0,NE,8.1,-,N/A,,Clear,40,2013-02-20 11:35:00
6:15 AM,6.3,0.5,77,30.32,10.0,NE,8.1,-,N/A,,Clear,50,2013-02-20 12:15:00
6:35 AM,6.3,0.5,77,30.32,10.0,ENE,6.9,-,N/A,,Clear,60,2013-02-20 12:35:00
6:55 AM,6.3,0.5,77,30.34,10.0,ENE,5.8,-,N/A,,Clear,70,2013-02-20 12:55:00
7:15 AM,6.6,0.5,76,30.34,10.0,ENE,8.1,-,N/A,,Scattered Clouds,70,2013-02-20 13:15:00
7:35 AM,6.8,-0.4,72,30.34,10.0,ENE,8.1,-,N/A,,Scattered Clouds,70,2013-02-20 13:35:00
7:55 AM,7.7,0.3,72,30.35,10.0,East,9.2,-,N/A,,Mostly Cloudy,80,2013-02-20 13:55:00
8:15 AM,7.9,0.5,72,30.35,10.0,East,8.1,-,N/A,,Mostly Cloudy,90,2013-02-20 14:15:00
8:35 AM,8.6,1.4,73,30.35,10.0,East,9.2,-,N/A,,Scattered Clouds,100,2013-02-20 14:35:00
8:55 AM,8.6,1.6,73,30.35,10.0,East,6.9,-,N/A,,Clear,90,2013-02-20 14:55:00
9:15 AM,10.4,2.5,70,30.35,10.0,ESE,8.1,-,N/A,,Clear,110,2013-02-20 15:15:00
9:35 AM,11.5,2.8,68,30.35,10.0,ESE,6.9,-,N/A,,Clear,110,2013-02-20 15:35:00
9:55 AM,12.7,3.7,67,30.36,10.0,ESE,8.1,-,N/A,,Mostly Cloudy,120,2013-02-20 15:55:00
10:15 AM,13.1,3.4,65,30.35,10.0,East,9.2,-,N/A,,Overcast,100,2013-02-20 16:15:00
10:35 AM,14.0,3.7,64,30.36,10.0,ESE,6.9,-,N/A,,Overcast,120,2013-02-20 16:35:00
10:55 AM,14.7,4.1,63,30.36,10.0,ESE,8.1,-,N/A,,Scattered Clouds,110,2013-02-20 16:55:00
11:15 AM,14.9,3.9,62,30.35,10.0,ESE,9.2,-,N/A,,Clear,110,2013-02-20 17:15:00
11:55 AM,17.6,4.8,57,30.36,10.0,ESE,8.1,-,N/A,,Scattered Clouds,120,2013-02-20 17:55:00
12:15 PM,18.0,5.0,57,30.35,10.0,ESE,6.9,-,N/A,,Scattered Clouds,120,2013-02-20 18:15:00
12:35 PM,18.5,5.2,56,30.33,10.0,ESE,9.2,-,N/A,,Clear,120,2013-02-20 18:35:00
12:55 PM,19.2,5.2,54,30.31,10.0,ESE,9.2,-,N/A,,Clear,120,2013-02-20 18:55:00
1:15 PM,20.3,5.5,53,30.30,10.0,ESE,10.4,-,N/A,,Clear,120,2013-02-20 19:15:00
1:35 PM,21.0,5.4,51,30.28,10.0,ESE,11.5,-,N/A,,Scattered Clouds,110,2013-02-20 19:35:00
1:55 PM,20.8,5.4,51,30.26,10.0,East,9.2,-,N/A,,Mostly Cloudy,90,2013-02-20 19:55:00
2:15 PM,22.1,5.7,49,30.26,10.0,ESE,11.5,-,N/A,,Mostly Cloudy,110,2013-02-20 20:15:00
2:55 PM,23.0,5.4,47,30.25,10.0,ESE,10.4,-,N/A,,Mostly Cloudy,120,2013-02-20 20:55:00
3:15 PM,23.0,5.4,47,30.24,10.0,ESE,11.5,-,N/A,,Overcast,110,2013-02-20 21:15:00
3:35 PM,23.4,5.7,47,30.24,10.0,East,10.4,-,N/A,,Overcast,100,2013-02-20 21:35:00
3:55 PM,23.4,5.9,47,30.23,10.0,ESE,10.4,-,N/A,,Overcast,110,2013-02-20 21:55:00
4:15 PM,23.0,8.1,53,30.23,10.0,ESE,9.2,-,N/A,Snow,Light Snow,110,2013-02-20 22:15:00
4:35 PM,22.5,11.3,62,30.22,3.0,ESE,11.5,-,N/A,Snow,Light Snow,120,2013-02-20 22:35:00
4:55 PM,22.1,14.2,72,30.22,2.5,East,10.4,-,N/A,Snow,Light Snow,100,2013-02-20 22:55:00
5:15 PM,21.7,16.2,79,30.21,2.0,East,10.4,-,N/A,Snow,Light Snow,100,2013-02-20 23:15:00
5:35 PM,22.1,15.6,76,30.21,3.0,ESE,8.1,-,N/A,Snow,Light Snow,110,2013-02-20 23:35:00
5:55 PM,22.8,14.0,69,30.21,4.0,East,9.2,-,N/A,Snow,Light Snow,90,2013-02-20 23:55:00
6:15 PM,23.0,12.9,65,30.20,10.0,ESE,4.6,-,N/A,,Overcast,120,2013-02-21 00:15:00
6:35 PM,23.9,12.2,61,30.20,10.0,East,5.8,-,N/A,,Overcast,100,2013-02-21 00:35:00
6:55 PM,24.4,11.5,58,30.20,10.0,East,8.1,-,N/A,,Overcast,100,2013-02-21 00:55:00
7:15 PM,24.6,11.7,58,30.19,10.0,East,9.2,-,N/A,,Overcast,100,2013-02-21 01:15:00
7:35 PM,24.8,11.8,58,30.19,10.0,East,9.2,-,N/A,,Overcast,90,2013-02-21 01:35:00
7:55 PM,25.2,10.6,54,30.19,10.0,East,9.2,-,N/A,,Overcast,100,2013-02-21 01:55:00
8:15 PM,25.3,9.5,51,30.19,10.0,ESE,10.4,-,N/A,,Overcast,110,2013-02-21 02:15:00
8:35 PM,25.2,10.4,54,30.19,10.0,East,11.5,-,N/A,,Overcast,100,2013-02-21 02:35:00
8:55 PM,25.2,9.1,51,30.19,10.0,East,11.5,-,N/A,,Overcast,100,2013-02-21 02:55:00
9:15 PM,25.2,9.5,52,30.19,10.0,East,13.8,-,N/A,,Overcast,100,2013-02-21 03:15:00
9:35 PM,25.0,8.8,50,30.20,10.0,East,10.4,-,N/A,,Overcast,100,2013-02-21 03:35:00
9:55 PM,25.0,8.6,50,30.21,10.0,East,13.8,-,N/A,,Overcast,100,2013-02-21 03:55:00
10:15 PM,24.8,9.1,51,30.21,10.0,East,12.7,-,N/A,,Overcast,100,2013-02-21 04:15:00
10:35 PM,24.8,9.1,51,30.21,10.0,ESE,11.5,-,N/A,,Overcast,110,2013-02-21 04:35:00
10:55 PM,24.8,9.5,52,30.22,10.0,East,10.4,-,N/A,,Overcast,100,2013-02-21 04:55:00
11:15 PM,24.4,9.7,53,30.21,10.0,East,12.7,-,N/A,,Overcast,90,2013-02-21 05:15:00
11:35 PM,24.4,9.7,53,30.20,10.0,East,10.4,-,N/A,,Overcast,90,2013-02-21 05:35:00
11:55 PM,24.3,9.7,54,30.20,10.0,East,10.4,-,N/A,,Overcast,80,2013-02-21 05:55:00